ANZ026M NZNR-NZAA

Flight info

Callsign ANZ026M
Flight time 0h 56m
Altitude 19000
Route BOVSA H372 MOOSE Y601 DODKU
Aircraft AT76/M-SDFGR/LB1

Departure

Time 2026-04-16 09:06
Airport Hawke's Bay Airport (NZNR)

Arrival

Time 2026-04-16 10:03
Airport Auckland International Airport (NZAA)
Time Latitude Longitude Altitude Speed Heading
2026-04-16 08:47 -39.46691 176.87135 18 ft 0 kts 203°
2026-04-16 09:01 -39.46692 176.87134 18 ft 1 kts 205°
2026-04-16 09:01 -39.46695 176.87127 16 ft 1 kts 237°
2026-04-16 09:01 -39.46689 176.87115 16 ft 4 kts 317°
2026-04-16 09:02 -39.46649 176.87095 18 ft 10 kts 17°
2026-04-16 09:02 -39.46578 176.87129 17 ft 11 kts 357°
2026-04-16 09:02 -39.46505 176.87126 18 ft 10 kts 359°
2026-04-16 09:02 -39.46440 176.87111 19 ft 7 kts 308°
2026-04-16 09:03 -39.46435 176.87084 19 ft 4 kts 274°
2026-04-16 09:03 -39.46435 176.87052 20 ft 3 kts 269°
2026-04-16 09:03 -39.46437 176.86928 20 ft 17 kts 269°
2026-04-16 09:03 -39.46432 176.86805 21 ft 8 kts 302°
2026-04-16 09:04 -39.46401 176.86784 19 ft 8 kts 348°
2026-04-16 09:04 -39.46331 176.86789 19 ft 11 kts
2026-04-16 09:04 -39.46232 176.86803 20 ft 7 kts 28°
2026-04-16 09:04 -39.46209 176.86813 21 ft 2 kts 315°
2026-04-16 09:05 -39.46217 176.86796 21 ft 3 kts 202°
2026-04-16 09:05 -39.46245 176.86798 21 ft 0 kts 184°
2026-04-16 09:05 -39.46335 176.86786 19 ft 42 kts 186°
2026-04-16 09:06 -39.46836 176.86733 23 ft 99 kts 186°
2026-04-16 09:06 -39.47638 176.86654 200 ft 121 kts 192°
2026-04-16 09:06 -39.48470 176.86584 688 ft 119 kts 192°
2026-04-16 09:06 -39.49321 176.86786 1080 ft 133 kts 163°
2026-04-16 09:07 -39.50188 176.87414 1177 ft 152 kts 158°
2026-04-16 09:07 -39.51134 176.88183 1297 ft 174 kts 156°
2026-04-16 09:07 -39.52184 176.89088 1576 ft 185 kts 156°
2026-04-16 09:07 -39.53276 176.89988 1971 ft 186 kts 160°
2026-04-16 09:08 -39.54393 176.90820 2422 ft 185 kts 163°
2026-04-16 09:08 -39.55470 176.91766 2868 ft 199 kts 140°
2026-04-16 09:08 -39.55950 176.93522 3280 ft 221 kts 95°
2026-04-16 09:08 -39.55515 176.95433 3694 ft 224 kts 53°
2026-04-16 09:09 -39.54359 176.96670 4084 ft 211 kts 11°
2026-04-16 09:09 -39.52960 176.97099 4374 ft 206 kts 356°
2026-04-16 09:09 -39.51549 176.97363 4765 ft 208 kts
2026-04-16 09:09 -39.50121 176.97711 5176 ft 209 kts
2026-04-16 09:10 -39.48688 176.98037 5580 ft 209 kts 359°
2026-04-16 09:10 -39.47245 176.98277 5988 ft 209 kts 355°
2026-04-16 09:10 -39.45800 176.98395 6360 ft 208 kts 353°
2026-04-16 09:10 -39.44342 176.98483 6723 ft 210 kts 353°
2026-04-16 09:11 -39.42894 176.98592 7091 ft 211 kts 354°
2026-04-16 09:11 -39.41423 176.98738 7451 ft 213 kts 355°
2026-04-16 09:11 -39.39945 176.98904 7834 ft 214 kts 356°
2026-04-16 09:11 -39.38459 176.99067 8196 ft 214 kts 355°
2026-04-16 09:12 -39.37084 176.98728 8542 ft 191 kts 315°
2026-04-16 09:12 -39.36095 176.97653 8836 ft 186 kts 307°
2026-04-16 09:12 -39.35096 176.96573 9182 ft 189 kts 310°
2026-04-16 09:12 -39.34035 176.95547 9522 ft 193 kts 314°
2026-04-16 09:13 -39.32898 176.94597 9854 ft 196 kts 318°
2026-04-16 09:13 -39.31703 176.93715 10187 ft 198 kts 320°
2026-04-16 09:13 -39.30488 176.92871 10522 ft 198 kts 321°
2026-04-16 09:13 -39.29271 176.92034 10840 ft 199 kts 320°
2026-04-16 09:14 -39.28048 176.91189 11154 ft 200 kts 320°
2026-04-16 09:14 -39.26825 176.90345 11471 ft 198 kts 319°
2026-04-16 09:14 -39.25616 176.89498 11782 ft 198 kts 319°
2026-04-16 09:14 -39.24399 176.88642 12109 ft 200 kts 319°
2026-04-16 09:15 -39.23180 176.87781 12441 ft 199 kts 319°
2026-04-16 09:15 -39.21978 176.86926 12753 ft 200 kts 319°
2026-04-16 09:15 -39.20775 176.86069 13044 ft 200 kts 318°
2026-04-16 09:15 -39.19555 176.85201 13339 ft 200 kts 318°
2026-04-16 09:16 -39.18318 176.84319 13640 ft 201 kts 318°
2026-04-16 09:16 -39.17108 176.83456 13908 ft 201 kts 318°
2026-04-16 09:16 -39.15877 176.82585 14164 ft 202 kts 318°
2026-04-16 09:16 -39.14642 176.81713 14416 ft 203 kts 318°
2026-04-16 09:17 -39.13405 176.80841 14673 ft 203 kts 317°
2026-04-16 09:17 -39.12169 176.79984 14814 ft 200 kts 318°
2026-04-16 09:17 -39.10943 176.79168 14833 ft 195 kts 318°
2026-04-16 09:17 -39.09997 176.78521 14846 ft 192 kts 317°
2026-04-16 09:18 -39.08852 176.77722 14848 ft 189 kts 316°
2026-04-16 09:18 -39.07699 176.76911 14874 ft 188 kts 316°
2026-04-16 09:18 -39.06570 176.76118 14899 ft 187 kts 316°
2026-04-16 09:18 -39.05433 176.75321 14927 ft 186 kts 316°
2026-04-16 09:19 -39.04301 176.74526 14914 ft 185 kts 316°
2026-04-16 09:19 -39.03173 176.73735 14921 ft 185 kts 316°
2026-04-16 09:19 -39.02049 176.72944 14914 ft 184 kts 316°
2026-04-16 09:19 -39.00923 176.72154 14941 ft 184 kts 316°
2026-04-16 09:20 -38.99801 176.71367 14975 ft 184 kts 315°
2026-04-16 09:20 -38.98677 176.70582 14978 ft 183 kts 315°
2026-04-16 09:20 -38.97561 176.69797 15016 ft 183 kts 315°
2026-04-16 09:20 -38.96443 176.69012 15058 ft 183 kts 315°
2026-04-16 09:21 -38.95326 176.68225 15095 ft 183 kts 315°
2026-04-16 09:21 -38.94208 176.67441 15088 ft 183 kts 315°
2026-04-16 09:21 -38.93095 176.66653 15110 ft 182 kts 314°
2026-04-16 09:21 -38.91986 176.65866 15069 ft 182 kts 315°
2026-04-16 09:22 -38.90885 176.65074 15085 ft 182 kts 314°
2026-04-16 09:22 -38.89860 176.64337 15100 ft 182 kts 315°
2026-04-16 09:22 -38.88751 176.63554 15074 ft 182 kts 315°
2026-04-16 09:22 -38.87630 176.62786 15093 ft 183 kts 316°
2026-04-16 09:23 -38.86472 176.62035 15075 ft 192 kts 316°
2026-04-16 09:23 -38.85251 176.61236 15116 ft 204 kts 319°
2026-04-16 09:23 -38.83956 176.60441 15310 ft 207 kts 320°
2026-04-16 09:23 -38.82653 176.59649 15532 ft 207 kts 319°
2026-04-16 09:24 -38.81349 176.58846 15770 ft 208 kts 319°
2026-04-16 09:24 -38.80041 176.58038 16003 ft 209 kts 319°
2026-04-16 09:24 -38.78729 176.57227 16216 ft 210 kts 319°
2026-04-16 09:24 -38.77416 176.56413 16419 ft 210 kts 319°
2026-04-16 09:25 -38.76097 176.55596 16624 ft 211 kts 319°
2026-04-16 09:25 -38.74772 176.54776 16819 ft 211 kts 319°
2026-04-16 09:25 -38.73444 176.53954 17007 ft 212 kts 319°
2026-04-16 09:25 -38.72171 176.53165 17174 ft 213 kts 319°
2026-04-16 09:26 -38.70932 176.52399 17346 ft 213 kts 319°
2026-04-16 09:26 -38.69593 176.51571 17511 ft 214 kts 319°
2026-04-16 09:26 -38.68250 176.50741 17707 ft 215 kts 319°
2026-04-16 09:26 -38.66903 176.49910 17907 ft 215 kts 319°
2026-04-16 09:27 -38.65554 176.49076 18092 ft 216 kts 319°
2026-04-16 09:27 -38.64197 176.48238 18262 ft 217 kts 319°
2026-04-16 09:27 -38.62835 176.47398 18412 ft 217 kts 319°
2026-04-16 09:27 -38.61470 176.46557 18553 ft 218 kts 319°
2026-04-16 09:28 -38.60105 176.45713 18690 ft 219 kts 319°
2026-04-16 09:28 -38.58730 176.44865 18818 ft 220 kts 319°
2026-04-16 09:28 -38.57336 176.44007 18872 ft 225 kts 320°
2026-04-16 09:28 -38.55928 176.43139 18905 ft 230 kts 320°
2026-04-16 09:29 -38.54471 176.42240 18917 ft 235 kts 320°
2026-04-16 09:29 -38.52987 176.41327 18920 ft 239 kts 321°
2026-04-16 09:29 -38.51480 176.40401 18924 ft 242 kts 321°
2026-04-16 09:29 -38.49948 176.39458 18930 ft 245 kts 321°
2026-04-16 09:30 -38.48398 176.38505 18927 ft 249 kts 321°
2026-04-16 09:30 -38.46831 176.37542 18930 ft 251 kts 321°
2026-04-16 09:30 -38.45256 176.36578 18925 ft 252 kts 322°
2026-04-16 09:30 -38.43677 176.35610 18927 ft 253 kts 321°
2026-04-16 09:31 -38.42086 176.34633 18933 ft 254 kts 322°
2026-04-16 09:31 -38.40490 176.33655 18924 ft 255 kts 322°
2026-04-16 09:31 -38.38889 176.32675 18940 ft 256 kts 322°
2026-04-16 09:31 -38.37284 176.31693 18938 ft 256 kts 322°
2026-04-16 09:32 -38.35695 176.30724 18938 ft 257 kts 322°
2026-04-16 09:32 -38.34078 176.29744 18937 ft 257 kts 322°
2026-04-16 09:32 -38.32459 176.28765 18942 ft 258 kts 322°
2026-04-16 09:32 -38.30837 176.27784 18940 ft 258 kts 322°
2026-04-16 09:33 -38.29214 176.26802 18942 ft 259 kts 322°
2026-04-16 09:33 -38.27589 176.25813 18944 ft 259 kts 322°
2026-04-16 09:33 -38.25959 176.24818 18939 ft 260 kts 322°
2026-04-16 09:33 -38.24332 176.23823 18941 ft 259 kts 322°
2026-04-16 09:34 -38.22705 176.22829 18937 ft 259 kts 322°
2026-04-16 09:34 -38.21081 176.21837 18940 ft 259 kts 322°
2026-04-16 09:34 -38.19459 176.20847 18944 ft 258 kts 322°
2026-04-16 09:34 -38.17839 176.19858 18954 ft 258 kts 322°
2026-04-16 09:35 -38.16220 176.18871 18946 ft 259 kts 322°
2026-04-16 09:35 -38.14595 176.17881 18943 ft 259 kts 322°
2026-04-16 09:35 -38.12970 176.16885 18946 ft 258 kts 322°
2026-04-16 09:35 -38.11356 176.15895 18957 ft 258 kts 322°
2026-04-16 09:36 -38.09730 176.14904 18946 ft 259 kts 323°
2026-04-16 09:36 -38.08104 176.13916 18943 ft 258 kts 323°
2026-04-16 09:36 -38.06482 176.12934 18949 ft 258 kts 323°
2026-04-16 09:36 -38.04859 176.11950 18955 ft 258 kts 323°
2026-04-16 09:37 -38.03246 176.10972 18953 ft 258 kts 323°
2026-04-16 09:37 -38.01626 176.09991 18953 ft 258 kts 323°
2026-04-16 09:37 -38.00004 176.09012 18958 ft 258 kts 323°
2026-04-16 09:37 -37.98385 176.08032 18955 ft 258 kts 323°
2026-04-16 09:38 -37.96784 176.07065 18955 ft 258 kts 323°
2026-04-16 09:38 -37.95160 176.06084 18956 ft 259 kts 323°
2026-04-16 09:38 -37.93534 176.05105 18947 ft 259 kts 323°
2026-04-16 09:38 -37.91908 176.04124 18955 ft 258 kts 323°
2026-04-16 09:39 -37.90285 176.03143 18954 ft 259 kts 323°
2026-04-16 09:39 -37.88664 176.02165 18957 ft 259 kts 323°
2026-04-16 09:39 -37.87035 176.01183 18965 ft 259 kts 323°
2026-04-16 09:39 -37.85404 176.00200 18953 ft 260 kts 324°
2026-04-16 09:40 -37.83770 175.99219 18955 ft 260 kts 323°
2026-04-16 09:40 -37.82140 175.98236 18954 ft 259 kts 323°
2026-04-16 09:40 -37.80510 175.97256 18958 ft 259 kts 323°
2026-04-16 09:40 -37.78884 175.96277 18953 ft 259 kts 323°
2026-04-16 09:41 -37.77259 175.95300 18967 ft 259 kts 323°
2026-04-16 09:41 -37.75630 175.94323 18963 ft 259 kts 323°
2026-04-16 09:41 -37.74001 175.93345 18965 ft 259 kts 323°
2026-04-16 09:41 -37.72373 175.92368 18966 ft 259 kts 323°
2026-04-16 09:42 -37.70740 175.91389 18960 ft 259 kts 323°
2026-04-16 09:42 -37.69113 175.90413 18961 ft 259 kts 323°
2026-04-16 09:42 -37.67485 175.89439 18961 ft 258 kts 323°
2026-04-16 09:42 -37.65866 175.88469 18965 ft 258 kts 323°
2026-04-16 09:43 -37.64245 175.87497 18965 ft 258 kts 323°
2026-04-16 09:43 -37.62626 175.86527 18963 ft 257 kts 323°
2026-04-16 09:43 -37.61012 175.85560 18967 ft 256 kts 324°
2026-04-16 09:43 -37.59398 175.84596 18957 ft 255 kts 323°
2026-04-16 09:44 -37.57794 175.83642 18974 ft 255 kts 323°
2026-04-16 09:44 -37.56192 175.82684 18963 ft 255 kts 323°
2026-04-16 09:44 -37.54587 175.81724 18959 ft 255 kts 323°
2026-04-16 09:44 -37.52983 175.80768 18975 ft 255 kts 324°
2026-04-16 09:45 -37.51376 175.79811 18988 ft 256 kts 323°
2026-04-16 09:45 -37.49760 175.78845 18981 ft 258 kts 323°
2026-04-16 09:45 -37.48133 175.77870 18968 ft 259 kts 323°
2026-04-16 09:45 -37.46502 175.76899 18967 ft 259 kts 324°
2026-04-16 09:46 -37.44901 175.75919 18963 ft 254 kts 319°
2026-04-16 09:46 -37.43552 175.74557 18981 ft 242 kts 306°
2026-04-16 09:46 -37.42406 175.73031 18987 ft 239 kts 301°
2026-04-16 09:46 -37.41349 175.71454 18984 ft 240 kts 299°
2026-04-16 09:47 -37.40279 175.69829 18978 ft 241 kts 300°
2026-04-16 09:47 -37.39205 175.68206 18978 ft 242 kts 300°
2026-04-16 09:47 -37.38463 175.67115 18874 ft 247 kts 301°
2026-04-16 09:47 -37.36906 175.64851 18398 ft 264 kts 302°
2026-04-16 09:48 -37.35695 175.63100 17989 ft 273 kts 302°
2026-04-16 09:48 -37.34853 175.61894 17694 ft 271 kts 302°
2026-04-16 09:48 -37.33616 175.60127 17267 ft 268 kts 303°
2026-04-16 09:48 -37.31990 175.57819 16720 ft 265 kts 303°
2026-04-16 09:49 -37.31185 175.56667 16449 ft 264 kts 302°
2026-04-16 09:49 -37.29984 175.54936 16049 ft 262 kts 302°
2026-04-16 09:49 -37.28790 175.53211 15652 ft 261 kts 302°
2026-04-16 09:49 -37.27597 175.51488 15268 ft 260 kts 302°
2026-04-16 09:50 -37.26409 175.49779 14889 ft 259 kts 303°
2026-04-16 09:50 -37.25224 175.48075 14520 ft 259 kts 303°
2026-04-16 09:50 -37.24040 175.46376 14153 ft 258 kts 303°
2026-04-16 09:50 -37.22856 175.44678 13785 ft 258 kts 303°
2026-04-16 09:51 -37.21678 175.42989 13381 ft 258 kts 303°
2026-04-16 09:51 -37.20498 175.41298 12978 ft 257 kts 303°
2026-04-16 09:51 -37.19319 175.39607 12579 ft 257 kts 303°
2026-04-16 09:51 -37.18143 175.37924 12184 ft 256 kts 303°
2026-04-16 09:52 -37.16970 175.36243 11797 ft 256 kts 304°
2026-04-16 09:52 -37.15798 175.34568 11416 ft 254 kts 304°
2026-04-16 09:52 -37.14635 175.32911 11043 ft 252 kts 304°
2026-04-16 09:52 -37.13483 175.31265 10684 ft 250 kts 304°
2026-04-16 09:53 -37.12353 175.29650 10328 ft 248 kts 304°
2026-04-16 09:53 -37.11217 175.28028 9973 ft 247 kts 304°
2026-04-16 09:53 -37.10088 175.26415 9592 ft 246 kts 304°
2026-04-16 09:53 -37.08960 175.24807 9207 ft 245 kts 304°
2026-04-16 09:54 -37.07835 175.23205 8829 ft 245 kts 304°
2026-04-16 09:54 -37.06711 175.21603 8460 ft 244 kts 304°
2026-04-16 09:54 -37.05589 175.20006 8086 ft 245 kts 304°
2026-04-16 09:54 -37.04467 175.18403 7728 ft 244 kts 304°
2026-04-16 09:55 -37.03481 175.16997 7407 ft 243 kts 304°
2026-04-16 09:55 -37.02398 175.15464 7059 ft 239 kts 304°
2026-04-16 09:55 -37.01303 175.13922 6720 ft 234 kts 304°
2026-04-16 09:55 -37.00231 175.12408 6369 ft 232 kts 304°
2026-04-16 09:56 -36.99832 175.11837 6240 ft 230 kts 304°
2026-04-16 09:56 -36.98894 175.10498 6013 ft 224 kts 304°
2026-04-16 09:56 -36.97870 175.09034 5659 ft 223 kts 304°
2026-04-16 09:56 -36.96858 175.07593 5306 ft 222 kts 304°
2026-04-16 09:57 -36.95844 175.06148 4966 ft 221 kts 304°
2026-04-16 09:57 -36.94873 175.04657 4603 ft 212 kts 294°
2026-04-16 09:57 -36.94634 175.02948 4276 ft 196 kts 260°
2026-04-16 09:57 -36.94869 175.01302 3842 ft 194 kts 255°
2026-04-16 09:58 -36.95313 174.99729 3294 ft 191 kts 246°
2026-04-16 09:58 -36.95793 174.98264 3113 ft 171 kts 248°
2026-04-16 09:58 -36.96172 174.96898 2738 ft 165 kts 251°
2026-04-16 09:58 -36.96523 174.95555 2495 ft 161 kts 250°
2026-04-16 09:59 -36.96876 174.94281 2288 ft 148 kts 250°
2026-04-16 09:59 -36.97202 174.93110 2093 ft 140 kts 250°
2026-04-16 09:59 -36.97518 174.91971 1939 ft 135 kts 250°
2026-04-16 09:59 -36.97828 174.90860 1721 ft 131 kts 250°
2026-04-16 10:00 -36.98114 174.89840 1558 ft 117 kts 250°
2026-04-16 10:00 -36.98356 174.88966 1418 ft 98 kts 250°
2026-04-16 10:00 -36.98587 174.88131 1290 ft 103 kts 251°
2026-04-16 10:01 -36.99047 174.86398 1000 ft 102 kts 250°
2026-04-16 10:01 -36.99284 174.85568 867 ft 102 kts 250°
2026-04-16 10:01 -36.99526 174.84702 735 ft 108 kts 249°
2026-04-16 10:01 -36.99764 174.83830 592 ft 104 kts 249°
2026-04-16 10:02 -36.99997 174.82984 467 ft 105 kts 249°
2026-04-16 10:02 -37.00236 174.82109 334 ft 105 kts 251°
2026-04-16 10:02 -37.00483 174.81242 176 ft 104 kts 250°
2026-04-16 10:02 -37.00714 174.80397 49 ft 102 kts 250°
2026-04-16 10:03 -37.00926 174.79635 24 ft 74 kts 251°
2026-04-16 10:03 -37.01036 174.79233 22 ft 34 kts 251°
2026-04-16 10:03 -37.01068 174.78984 22 ft 25 kts 273°
2026-04-16 10:03 -37.01047 174.78813 23 ft 16 kts 281°
2026-04-16 10:04 -37.01005 174.78743 22 ft 11 kts 358°
2026-04-16 10:04 -37.00961 174.78812 22 ft 14 kts 71°
2026-04-16 10:04 -37.00926 174.78944 22 ft 18 kts 72°
2026-04-16 10:04 -37.00890 174.79070 23 ft 9 kts 70°
2026-04-16 10:05 -37.00863 174.79166 24 ft 15 kts 71°
2026-04-16 10:05 -37.00830 174.79285 22 ft 10 kts 71°
2026-04-16 10:05 -37.00776 174.79327 22 ft 9 kts 346°
2026-04-16 10:05 -37.00723 174.79350 22 ft 10 kts 66°
2026-04-16 10:06 -37.00687 174.79441 24 ft 12 kts 30°
2026-04-16 10:06 -37.00615 174.79426 22 ft 8 kts 341°
2026-04-16 10:06 -37.00584 174.79413 22 ft 0 kts 341°
2026-04-16 10:08 -37.00563 174.79404 25 ft 6 kts 341°
2026-04-16 10:08 -37.00515 174.79383 22 ft 7 kts 341°
2026-04-16 10:08 -37.00484 174.79363 22 ft 3 kts 303°
2026-04-16 10:08 -37.00484 174.79353 22 ft 0 kts 262°
2026-04-16 10:09 -37.00490 174.79335 22 ft 3 kts 249°
2026-04-16 10:09 -37.00495 174.79315 22 ft 1 kts 250°
2026-04-16 10:09 -37.00496 174.79312 22 ft 0 kts 251°